Weather History for KIZG - May, 2013

Change the Weather History Date:

Tuesday, May 21, 2013

  Actual Average Record
Temperature  
Mean Temperature 52 °F -  
Max Temperature 55 °F 66 °F 82 °F (1998)
Min Temperature 48 °F 40 °F 35 °F (2001)
Degree Days  
Heating Degree Days 14    
Growing Degree Days 2 (Base 50)    
Moisture  
Dew Point 51 °F    
Average Humidity 97    
Maximum Humidity 100    
Minimum Humidity 88    
Precipitation  
Precipitation 0.98 in - - ()
Sea Level Pressure  
Sea Level Pressure 30.01 in    
Wind  
Wind Speed 3 mph (ESE)    
Max Wind Speed 16 mph    
Max Gust Speed 22 mph    
Visibility 4 miles    
Events Fog , Rain , Thunderstorm    
Averages and records for this station are not official NWS values.
T = Trace of Precipitation, MM = Missing Value Source: NWS Daily Summary

Daily Weather History Graph

Daily Weather History Graph

Search for Another Location

Airport or City:

Trip Planner

Search our weather history database for the weather conditions in past years. The results will help you decide how hot, cold, wet, or windy it might be!

Date:

Astronomy

May. 21, 2013 Rise Set
Actual Time 5:11 AM EDT 8:09 PM EDT
Civil Twilight 4:37 AM EDT 8:44 PM EDT
Nautical Twilight 3:53 AM EDT 9:27 PM EDT
Astronomical Twilight 3:02 AM EDT 10:19 PM EDT
Moon 4:12 PM EDT (5/21) 2:46 AM EDT (5/21)
Length of Visible Light 16h 06m
Length of Day
14h 58m
Waxing Gibbous, 84% of the Moon is Illuminated
May 21
Waxing Gibbous
May 25
Full
May 31
Last Quarter
Jun 8
New
Jun 16
First Quarter

Hourly Weather History & Observations

Time (EDT) Temp. Dew Point Humidity Pressure Visibility Wind Dir Wind Speed Gust Speed Precip Events Conditions
12:20 AM 50.0 °F 48.2 °F 94% 30.00 in 6.0 mi WNW 3.5 mph - N/A   Partly Cloudy
12:30 AM 50.0 °F 48.2 °F 94% 29.99 in 2.0 mi SW 3.5 mph - N/A   Clear
12:39 AM 51.8 °F 50.0 °F 94% 29.99 in 3.0 mi Calm Calm - N/A   Clear
12:54 AM 50.0 °F 48.9 °F 96% 30.00 in 6.0 mi Calm Calm - N/A   Clear
1:04 AM 50.0 °F 48.2 °F 94% 30.00 in 2.5 mi Calm Calm - N/A   Clear
1:12 AM 48.2 °F 48.2 °F 100% 30.00 in 1.2 mi Calm Calm - N/A   Partly Cloudy
1:18 AM 50.0 °F 48.2 °F 94% 30.00 in 2.0 mi Calm Calm - N/A   Partly Cloudy
1:26 AM 50.0 °F 48.2 °F 94% 30.00 in 5.0 mi Calm Calm - N/A   Partly Cloudy
1:29 AM 50.0 °F 48.2 °F 94% 30.00 in 1.8 mi Calm Calm - N/A   Partly Cloudy
1:32 AM 48.2 °F 48.2 °F 100% 30.00 in 1.0 mi Calm Calm - N/A   Mist
1:42 AM 48.2 °F 48.2 °F 100% 30.00 in 1.5 mi Calm Calm - N/A   Partly Cloudy
1:49 AM 48.2 °F 48.2 °F 100% 29.99 in 3.0 mi Calm Calm - N/A   Partly Cloudy
1:50 AM 48.0 °F 48.0 °F 100% 29.99 in 4.0 mi Calm Calm - N/A   Partly Cloudy
1:58 AM 48.2 °F 48.2 °F 100% 29.99 in 1.8 mi Calm Calm - N/A   Partly Cloudy
2:08 AM 48.2 °F 48.2 °F 100% 29.99 in 3.0 mi Calm Calm - N/A   Scattered Clouds
2:32 AM 50.0 °F 48.2 °F 94% 29.99 in 1.8 mi WSW 3.5 mph - N/A   Mostly Cloudy
2:37 AM 48.2 °F 48.2 °F 100% 29.98 in 0.8 mi West 3.5 mph - N/A   Mist
2:45 AM 48.2 °F 48.2 °F 100% 29.99 in 1.5 mi Calm Calm - N/A   Mostly Cloudy
2:49 AM 48.2 °F 48.2 °F 100% 29.99 in 2.0 mi Calm Calm - N/A   Mostly Cloudy
2:54 AM 48.9 °F 48.0 °F 97% 29.99 in 2.0 mi Calm Calm - N/A   Scattered Clouds
3:05 AM 50.0 °F 48.2 °F 94% 29.99 in 5.0 mi Calm Calm - N/A   Mostly Cloudy
3:33 AM 50.0 °F 50.0 °F 100% 29.99 in 7.0 mi Calm Calm - N/A   Overcast
3:54 AM 52.0 °F 51.1 °F 97% 29.99 in 3.0 mi Calm Calm - N/A   Overcast
3:59 AM 51.8 °F 51.8 °F 100% 29.99 in 1.8 mi Calm Calm - N/A   Overcast
4:06 AM 51.8 °F 51.8 °F 100% 29.98 in 0.8 mi Calm Calm - N/A   Mist
4:54 AM 53.1 °F 53.1 °F 100% 29.98 in 0.5 mi Calm Calm - 0.00 in Fog , Rain Light Rain
5:51 AM 55.4 °F 55.4 °F 100% 29.99 in 1.0 mi Calm Calm - 0.01 in   Mist
5:54 AM 55.0 °F 55.0 °F 100% 29.99 in 0.8 mi Calm Calm - 0.01 in   Mist
6:54 AM 54.0 °F 54.0 °F 100% 29.99 in 0.8 mi SE 4.6 mph - N/A Thunderstorm Mist
7:01 AM 53.6 °F 53.6 °F 100% 30.02 in 1.0 mi Calm Calm - N/A Thunderstorm Unknown
7:11 AM 53.6 °F 53.6 °F 100% 29.95 in 0.5 mi SE 12.7 mph - 0.08 in Fog , Rain , Thunderstorm Heavy Thunderstorms and Rain
7:20 AM 53.6 °F 53.6 °F 100% 29.95 in 1.8 mi SE 8.1 mph - 0.10 in Rain Light Rain
7:25 AM 53.6 °F 53.6 °F 100% 29.96 in 3.0 mi ESE 8.1 mph - 0.10 in Rain Light Rain
7:54 AM 53.1 °F 53.1 °F 100% 29.98 in 6.0 mi East 3.5 mph - 0.10 in   Overcast
8:06 AM 53.6 °F 53.6 °F 100% 29.98 in 9.0 mi ESE 4.6 mph - N/A   Overcast
8:36 AM 53.6 °F 53.6 °F 100% 29.98 in 7.0 mi SE 4.6 mph - 0.00 in Rain Light Rain
8:54 AM 54.0 °F 53.1 °F 97% 29.98 in 10.0 mi SE 5.8 mph - 0.00 in   Overcast
9:54 AM 54.0 °F 53.1 °F 97% 29.99 in 5.0 mi SE 3.5 mph - 0.00 in   Overcast
10:34 AM 53.6 °F 53.6 °F 100% 29.98 in 2.5 mi ESE 4.6 mph - N/A   Overcast
10:45 AM 53.6 °F 53.6 °F 100% 29.98 in 2.5 mi ESE 5.8 mph - N/A   Overcast
10:54 AM 54.0 °F 54.0 °F 100% 29.99 in 4.0 mi ESE 8.1 mph - N/A   Overcast
11:08 AM 53.6 °F 53.6 °F 100% 29.98 in 10.0 mi ESE 6.9 mph - N/A   Overcast
11:40 AM 55.4 °F 53.6 °F 94% 29.97 in 10.0 mi ESE 5.8 mph - N/A   Overcast
11:54 AM 55.9 °F 53.1 °F 90% 29.98 in 10.0 mi ESE 8.1 mph - N/A   Overcast
12:54 PM 54.0 °F 52.0 °F 93% 29.97 in 10.0 mi ESE 12.7 mph 17.3 mph N/A   Overcast
1:54 PM 53.1 °F 51.1 °F 93% 30.01 in 4.0 mi East 9.2 mph - N/A   Overcast
2:06 PM 53.6 °F 51.8 °F 94% 30.01 in 2.5 mi East 8.1 mph - 0.00 in Rain Light Rain
2:13 PM 51.8 °F 51.8 °F 100% 30.01 in 4.0 mi East 6.9 mph - 0.00 in   Overcast
2:23 PM 51.8 °F 51.8 °F 100% 30.02 in 1.8 mi East 4.6 mph - 0.01 in Rain Light Rain
2:50 PM 51.8 °F 50.0 °F 94% 30.02 in 2.5 mi Variable 5.8 mph - 0.02 in Rain Light Rain
2:54 PM 52.0 °F 51.1 °F 97% 30.03 in 2.5 mi East 3.5 mph - 0.02 in   Overcast
3:17 PM 51.8 °F 51.8 °F 100% 30.02 in 3.0 mi East 4.6 mph - N/A   Overcast
3:32 PM 51.8 °F 50.0 °F 94% 30.04 in 7.0 mi Variable 3.5 mph - N/A   Overcast
3:54 PM 52.0 °F 50.0 °F 93% 30.05 in 7.0 mi Calm Calm - N/A   Overcast
4:54 PM 53.1 °F 50.0 °F 89% 30.04 in 10.0 mi ENE 3.5 mph - 0.00 in   Overcast
5:25 PM 51.8 °F 50.0 °F 94% 30.04 in 10.0 mi East 6.9 mph - N/A   Overcast
5:54 PM 53.1 °F 50.0 °F 89% 30.04 in 10.0 mi East 3.5 mph - N/A   Overcast
6:12 PM 53.6 °F 50.0 °F 88% 30.03 in 10.0 mi Calm Calm - N/A   Overcast
6:54 PM 52.0 °F 50.0 °F 93% 30.04 in 10.0 mi ENE 3.5 mph - N/A   Overcast
7:54 PM 52.0 °F 50.0 °F 93% 30.05 in 10.0 mi ESE 4.6 mph - 0.00 in   Overcast
8:21 PM 51.8 °F 50.0 °F 94% 30.05 in 3.0 mi Calm Calm - 0.01 in   Overcast
8:25 PM 51.8 °F 50.0 °F 94% 30.04 in 2.5 mi Calm Calm - 0.01 in   Overcast
8:40 PM 51.8 °F 50.0 °F 94% 30.05 in 4.0 mi Variable 3.5 mph - 0.01 in   Overcast
8:49 PM 51.8 °F 50.0 °F 94% 30.05 in 4.0 mi Calm Calm - 0.01 in   Overcast
8:54 PM 51.1 °F 50.0 °F 96% 30.06 in 3.0 mi East 3.5 mph - 0.01 in   Overcast
9:08 PM 51.8 °F 50.0 °F 94% 30.05 in 4.0 mi East 3.5 mph - 0.01 in   Overcast
9:23 PM 51.8 °F 50.0 °F 94% 30.04 in 10.0 mi East 3.5 mph - 0.01 in   Overcast
9:54 PM 51.1 °F 50.0 °F 96% 30.05 in 10.0 mi East 3.5 mph - 0.01 in   Overcast
10:00 PM 51.8 °F 50.0 °F 94% 30.04 in 9.0 mi ESE 3.5 mph - N/A   Overcast
10:36 PM 50.0 °F 48.2 °F 94% 30.15 in 1.8 mi West 16.1 mph 21.9 mph 0.21 in Rain Heavy Rain
10:41 PM 50.0 °F 48.2 °F 94% 30.12 in 0.8 mi Variable 6.9 mph 21.9 mph 0.47 in Rain Heavy Rain
10:53 PM 50.0 °F 48.9 °F 96% 30.06 in 1.5 mi ESE 8.1 mph - 0.67 in Rain , Thunderstorm Heavy Thunderstorms and Rain
10:58 PM 50.0 °F 50.0 °F 100% 30.05 in 3.0 mi East 4.6 mph - 0.01 in Rain , Thunderstorm Thunderstorms and Rain
11:10 PM 50.0 °F 50.0 °F 100% 30.04 in 5.0 mi Calm Calm - 0.04 in Rain , Thunderstorm Thunderstorms and Rain
11:26 PM 50.0 °F 48.2 °F 94% 30.01 in 5.0 mi ENE 5.8 mph - 0.11 in Rain Rain
11:54 PM 50.0 °F 48.9 °F 96% 30.03 in 10.0 mi Calm Calm - 0.16 in Rain Light Rain